Wind_Speed
33 32 31 29 28 24 23 20 19 14 10 12 13 12 11 11 10 12 11 12 13 13 13 11 10 9 9 13 13 13 13 24 12 5 12 16 22 21 18 17 15 13 12
31 29 29 29 26 28 28 26 24 20 14 13 13 12 12 12 12 13 14 14 15 15 14 13 14 11 12 11 12 13 14 12 9 8 11 19 13 21 21 19 17 13 11
28 27 26 28 29 29 28 26 23 24 23 19 18 19 18 19 19 18 17 18 17 17 17 16 17 14 15 15 14 12 9 10 15 16 11 12 10 24 23 20 16 13 11
28 28 27 28 28 27 25 23 22 21 21 23 23 23 21 20 20 20 19 22 21 21 20 19 19 19 18 17 16 15 14 13 17 20 19 16 15 22 22 21 18 16 14
28 28 29 27 27 27 26 25 23 22 22 21 21 22 22 22 23 23 22 23 24 25 23 21 21 20 21 19 17 19 17 16 19 23 15 11 14 18 22 20 20 20 17
32 32 30 29 26 27 26 25 24 24 23 21 23 25 24 24 24 24 23 23 23 24 24 25 25 24 24 21 21 20 21 21 20 23 21 17 21 24 28 27 20 13 7
34 32 30 30 30 29 28 27 25 24 22 21 20 21 23 24 23 24 23 24 25 26 26 26 26 26 24 23 23 23 22 22 22 21 18 23 25 30 30 25 27 25 18
34 33 31 31 30 29 27 25 23 24 23 20 20 21 24 25 23 22 21 22 23 26 27 27 27 26 27 25 24 23 21 23 26 26 22 22 22 25 31 32 36 27 18
33 32 27 21 20 19 20 20 20 19 18 17 15 15 14 18 18 17 18 20 22 23 24 26 26 26 26 25 24 26 24 26 23 26 23 24 23 21 25 29 28 26 9
32 27 21 21 19 20 16 16 13 9 6 4 6 9 12 15 17 18 19 20 22 24 27 27 26 25 25 22 24 26 28 28 25 27 25 21 19 24 28 32 35 30 16
25 21 20 20 20 17 14 9 7 4 2 2 6 9 11 11 13 13 11 12 14 20 24 25 24 22 22 22 23 24 28 27 29 25 25 24 20 20 25 31 35 37 31
26 22 21 18 16 14 12 9 7 5 4 4 5 8 9 10 13 17 18 14 15 15 18 23 21 19 20 15 15 16 19 24 26 26 25 26 25 25 25 27 35 36 36
29 30 25 19 14 11 15 14 11 8 8 8 10 13 15 15 15 15 16 16 15 12 13 14 14 16 15 16 15 15 17 18 21 22 23 25 27 28 25 24 27 30 34
32 27 22 19 20 17 16 14 11 8 7 7 9 12 17 19 18 15 17 17 16 14 12 12 12 12 15 18 18 20 18 15 14 17 20 21 22 23 24 23 26 26 24
26 23 20 20 20 18 16 13 8 6 4 4 6 10 14 19 19 18 18 19 17 15 15 14 11 11 13 14 16 16 17 16 16 17 18 18 20 20 22 25 26 25 24
26 23 23 23 22 19 17 14 9 6 2 3 6 9 9 13 17 17 17 15 16 14 12 12 13 12 13 13 13 14 14 14 15 14 15 17 19 19 20 23 26 27 23
26 23 24 24 22 20 17 15 14 9 4 3 3 7 10 13 16 18 14 12 9 6 7 10 12 12 12 12 13 14 14 14 13 15 15 16 18 21 23 25 26 24 20
19 22 24 24 23 22 20 18 15 14 11 8 4 4 6 9 13 14 16 12 9 8 6 5 4 4 5 6 8 10 10 9 9 10 11 13 16 19 19 19 19 18 18
19 21 22 21 21 21 18 17 16 16 15 11 7 7 7 8 9 11 11 14 13 10 8 6 6 5 4 2 3 4 5 6 7 7 8 9 11 13 15 15 14 14 12
15 16 22 21 18 14 12 13 15 20 19 17 12 10 9 7 7 8 9 9 9 9 9 7 6 4 3 3 2 2 1 1 2 3 3 5 8 10 12 14 16 17 15
13 14 16 17 15 13 13 17 19 23 25 23 20 13 12 12 8 8 7 8 7 5 5 5 6 5 6 6 5 4 4 4 4 5 9 11 13 16 17 20 21 23 24
19 17 18 19 18 16 14 17 17 19 24 26 25 20 16 17 14 13 11 10 7 5 3 3 5 7 6 6 5 5 3 4 6 8 11 12 15 18 19 20 19 16 15
19 19 18 20 21 19 14 13 12 14 19 24 26 27 22 22 18 16 14 12 12 9 4 2 1 1 1 2 3 4 4 6 8 10 13 14 15 14 14 14 12 12 14
25 18 21 23 21 22 21 19 15 14 13 12 14 20 23 22 18 18 14 11 14 14 12 9 7 6 5 3 4 4 5 7 9 10 11 11 12 12 11 10 10 11 13
22 15 14 24 25 25 23 23 19 19 17 12 12 16 17 16 15 16 17 15 14 14 14 16 16 14 13 11 9 7 7 9 11 13 12 13 14 13 13 14 15 16 17
19 15 16 16 23 30 25 26 26 23 23 18 17 16 16 15 14 13 17 17 18 18 17 16 18 18 18 17 16 13 11 11 12 12 16 18 18 18 18 16 15 16 17
Wind_Direction
208 209 211 213 215 216 221 225 229 237 240 232 231 235 239 234 237 238 244 249 257 266 261 267 267 263 233 244 247 236 223 238 219 209 189 195 193 198 199 194 200 196 194
209 211 214 213 215 222 228 233 238 238 235 237 244 240 243 248 253 257 262 261 265 266 264 265 264 267 260 245 244 225 242 222 196 204 175 168 199 212 196 194 197 201 201
205 208 211 215 221 226 231 235 237 241 242 245 252 258 261 263 264 263 261 261 263 263 267 268 268 268 262 258 257 254 242 228 213 214 193 201 186 198 189 188 192 200 201
205 208 211 215 219 223 226 231 234 239 245 247 254 261 263 268 270 271 269 268 270 265 264 267 268 268 267 265 259 253 252 237 231 209 207 192 180 192 191 187 186 196 201
203 209 217 222 223 225 229 234 239 243 249 253 255 258 263 265 264 266 270 271 271 272 269 265 263 268 269 269 260 258 244 235 214 199 210 183 175 175 186 190 194 202 205
206 211 216 222 225 228 232 234 239 246 250 258 260 261 263 265 269 270 269 271 272 271 271 268 266 265 263 262 258 256 258 246 217 211 209 197 197 199 201 199 190 178 197
212 216 217 222 224 228 233 235 237 244 252 257 263 262 263 266 269 272 270 268 270 270 271 271 270 268 266 258 255 259 259 247 247 240 221 212 198 208 203 197 199 200 203
215 221 223 224 226 232 234 234 233 240 248 252 261 263 267 271 277 280 279 273 270 270 271 273 272 269 265 257 254 256 258 251 241 241 244 245 233 229 222 219 211 202 208
216 221 218 213 210 207 209 214 219 227 235 248 247 254 262 266 274 286 288 291 283 277 275 274 273 272 265 264 261 258 256 256 256 247 251 255 240 233 226 207 189 182 185
213 215 213 208 203 201 213 221 205 201 194 217 259 274 284 289 290 295 289 288 281 277 275 275 274 271 268 261 258 258 257 255 253 254 255 252 246 234 234 229 216 191 182
210 196 197 205 198 185 163 161 165 164 174 289 297 297 295 295 295 300 303 296 292 282 277 279 277 276 268 264 262 257 257 264 260 256 251 252 245 237 227 225 228 220 197
185 180 175 165 165 166 166 147 135 116 89 42 350 335 329 316 300 287 282 298 292 291 276 275 278 277 266 256 258 266 270 260 260 255 246 247 238 230 230 232 232 230 230
173 158 154 157 158 159 144 131 112 90 64 31 4 347 338 334 325 314 296 281 283 298 290 282 273 265 265 263 261 268 271 267 249 248 246 248 249 250 244 233 237 235 233
160 151 154 155 149 144 137 128 111 94 61 28 3 343 331 329 332 325 317 308 277 281 283 286 287 280 264 262 263 265 268 270 256 252 256 261 257 241 230 232 226 224 219
155 152 156 160 155 148 147 141 134 120 76 36 2 344 339 332 330 319 310 307 308 292 284 286 286 283 280 273 274 268 264 266 257 259 261 257 240 233 228 233 225 219 215
155 159 162 164 162 164 164 161 168 160 88 15 2 358 2 353 354 334 317 305 302 285 258 266 276 274 271 273 279 276 266 255 254 261 260 247 234 232 225 228 229 226 216
164 166 172 173 175 179 181 179 177 189 207 278 318 334 343 353 356 353 348 335 331 306 268 276 271 270 271 270 264 263 264 267 269 255 250 252 246 242 233 227 222 217 208
169 182 179 185 191 201 201 206 207 200 218 250 257 308 328 344 356 357 15 9 7 9 8 345 317 293 278 270 268 267 263 262 257 253 247 245 241 235 221 216 215 215 210
189 202 197 198 194 205 205 213 224 218 222 235 237 264 293 321 335 353 7 27 40 29 9 1 353 331 322 312 292 276 266 256 252 251 249 247 244 236 228 225 221 217 194
199 187 183 185 196 208 206 214 225 219 223 229 232 248 256 284 316 347 358 8 24 33 41 36 23 9 4 32 67 111 126 202 212 220 219 222 209 204 178 163 153 140 148
194 179 189 199 212 214 231 230 229 225 226 233 235 242 246 246 269 299 333 342 344 10 22 39 52 64 63 67 77 83 105 126 142 148 152 150 155 142 139 138 133 128 126
206 203 210 222 223 224 238 242 254 231 229 237 242 240 244 248 256 269 282 297 303 323 345 15 45 55 72 83 96 104 132 137 150 155 149 150 150 145 144 138 138 146 147
209 219 227 227 223 228 241 231 233 232 234 245 247 242 238 244 253 263 270 274 270 262 259 281 295 280 149 140 120 105 157 169 151 151 156 154 155 154 158 159 160 166 172
216 215 236 238 229 232 237 243 239 229 228 229 226 234 234 243 254 258 263 266 262 259 253 250 250 249 247 232 217 215 208 206 200 189 187 182 179 174 175 189 201 204 210
213 220 231 240 239 238 243 241 244 239 235 226 229 236 236 247 254 258 259 251 259 261 265 264 255 251 250 246 240 232 231 225 222 212 210 205 203 210 227 245 253 248 248
214 225 236 248 237 238 236 237 241 244 248 245 246 247 247 250 255 264 261 256 251 255 258 265 268 264 263 261 257 251 242 238 234 232 231 227 231 236 239 244 239 234 231
Height
785 789 792 795 799 801 805 807 809 811 812 813 815 816 816 817 818 818 819 819 819 819 820 821 821 822 822 821 821 822 823 824 825 824 823 825 827 829 831 834 836 837 837
782 786 789 793 796 798 800 803 806 808 809 809 811 813 814 814 815 815 815 816 816 816 816 816 817 818 819 820 820 820 820 819 821 822 822 823 826 828 829 831 834 836 837
780 783 786 789 792 794 796 797 801 803 805 806 807 808 809 810 810 810 811 811 812 813 813 812 812 814 815 816 816 817 817 816 816 818 822 825 826 827 829 830 832 834 835
777 781 783 785 787 790 793 794 796 799 800 801 802 804 805 806 806 807 807 806 806 808 808 809 809 809 810 810 811 813 813 813 813 814 818 819 821 823 825 827 830 831 832
772 776 778 781 783 786 788 791 793 794 796 796 797 799 800 801 802 802 802 802 801 802 803 803 803 804 804 804 805 806 807 809 810 812 814 814 815 817 819 822 825 828 830
768 770 773 777 780 781 784 786 788 790 791 792 793 794 795 795 796 797 797 797 797 797 796 797 797 798 798 799 799 800 800 802 805 806 807 807 808 810 812 816 821 825 827
764 766 769 772 774 777 780 782 782 784 786 788 789 789 789 789 791 791 792 791 791 790 790 789 790 790 791 792 792 793 793 794 796 797 797 799 801 802 807 811 813 815 817
760 763 766 768 770 773 774 777 779 781 782 784 784 785 785 785 785 785 785 785 785 783 783 782 782 782 784 785 785 786 786 787 789 790 791 792 794 796 797 799 804 812 814
755 759 762 765 767 768 769 772 774 776 779 778 779 779 779 779 780 779 778 778 777 776 776 776 775 775 776 777 779 780 780 781 783 784 785 786 789 791 792 797 800 805 808
750 756 761 762 764 765 766 767 770 773 774 775 776 776 775 775 775 774 773 771 770 770 769 768 769 768 769 771 772 773 774 775 777 779 780 780 782 783 785 786 788 792 797
749 755 760 761 762 762 764 767 769 771 772 773 773 773 771 771 770 769 768 765 763 762 762 761 762 762 763 764 765 766 766 769 770 772 773 774 776 777 777 780 781 782 784
746 750 756 761 763 763 762 766 768 770 771 771 771 770 769 767 766 764 763 762 759 757 756 756 756 756 757 758 758 759 761 762 763 764 765 766 768 770 771 773 774 776 777
743 745 751 759 765 766 765 765 768 770 770 770 768 767 764 763 761 759 757 756 755 752 751 751 750 751 752 752 753 754 754 754 756 758 758 758 759 762 765 767 769 771 772
740 744 751 759 763 765 765 766 767 769 769 770 768 766 762 759 756 754 752 749 748 748 746 746 746 745 746 747 747 748 749 749 750 751 753 754 755 756 758 760 763 765 769
742 746 754 762 764 766 766 765 766 768 769 769 768 765 762 758 755 752 750 746 744 743 741 742 742 741 740 741 741 743 743 744 744 746 747 749 751 752 754 755 757 759 760
742 749 757 762 763 765 766 765 765 766 767 768 767 765 761 757 753 749 746 743 740 738 736 737 738 738 737 737 737 738 739 740 740 742 743 744 744 747 750 751 753 754 755
742 749 757 760 761 765 765 762 763 765 765 766 766 764 761 757 753 749 744 740 737 735 733 733 734 734 733 733 734 735 735 735 735 736 738 739 740 742 743 745 746 748 748
743 754 753 757 759 763 759 759 760 762 764 764 764 763 762 758 754 750 744 740 738 735 733 732 732 731 731 731 731 731 731 732 732 733 733 734 736 737 738 739 741 743 744
748 752 751 753 754 758 754 757 760 761 763 762 762 762 761 758 754 752 748 743 740 738 736 734 733 732 730 729 729 730 730 730 731 731 731 731 733 734 735 736 738 740 742
745 745 746 750 752 752 752 756 758 759 760 760 760 760 759 758 754 752 749 746 744 741 739 737 735 733 732 729 730 729 730 731 730 730 730 731 732 733 734 736 737 739 743
740 740 744 749 749 747 748 752 755 756 756 756 756 757 756 755 754 753 751 748 746 744 742 740 737 735 734 732 732 733 733 733 732 732 732 732 733 735 737 738 740 742 746
732 739 743 745 748 744 745 750 751 751 751 752 751 753 754 753 752 752 750 748 747 745 744 742 739 738 737 737 737 737 738 737 736 736 735 736 737 739 741 743 745 748 750
732 739 741 744 744 741 745 748 748 748 749 747 746 748 749 749 748 748 747 746 746 746 745 743 742 742 741 740 739 739 740 741 740 740 741 740 742 744 746 747 749 751 754
733 736 740 740 738 739 741 742 744 745 744 742 742 743 743 744 744 745 745 744 744 744 744 744 743 743 742 741 741 741 741 742 743 743 744 744 744 745 747 749 751 752 754
731 734 733 732 734 736 738 739 741 741 740 740 741 740 741 741 741 742 742 742 742 743 743 742 742 742 742 741 741 741 741 742 743 743 744 744 745 746 748 749 749 749 751
728 726 726 728 728 729 732 735 736 737 736 737 738 738 739 739 739 739 739 739 739 740 741 740 739 740 740 740 740 741 741 742 742 743 743 744 745 745 746 746 747 748 748